FW6002 Weather Reports


Display with metric or nautical units.
time (UTC)temp
F
wind
direction
speed
MPH
gust
MPH
rain 1hr
in
rain 24hr
in
rain mn
in
humidity
%
barometer
mb
20260831172558 99 14 2.0 7.0 0.00 0.00 0.00 39 1016.7
20260831172055 98 67 1.0 8.0 0.00 0.00 0.00 42 1016.8
20260831171605 98 219 2.0 8.0 0.00 0.00 0.00 39 1017.1
20260831171056 99 88 1.0 6.0 0.00 0.00 0.00 39 1017.2
20260831170555 98 50 2.0 6.0 0.00 0.00 0.00 39 1017.0
20260831170106 97 293 2.0 5.0 0.00 0.00 0.00 40 1017.0
20260831165556 98 63 1.0 6.0 0.00 0.00 0.00 39 1017.0
20260831165056 97 43 2.0 8.0 0.00 0.00 0.00 41 1017.1
20260831164616 96 127 2.0 9.0 0.00 0.00 0.00 41 1017.0
20260831164056 96 41 2.0 9.0 0.00 0.00 0.00 42 1017.1
20260831163556 96 360 2.0 8.0 0.00 0.00 0.00 43 1017.0
20260831163100 95 36 1.0 7.0 0.00 0.00 0.00 44 1017.2
20260831162557 95 61 2.0 7.0 0.00 0.00 0.00 44 1017.0
20260831162057 96 37 1.0 4.0 0.00 0.00 0.00 45 1017.1
20260831161601 96 32 1.0 5.0 0.00 0.00 0.00 45 1017.1
20260831161058 95 61 1.0 5.0 0.00 0.00 0.00 47 1017.0
20260831160555 95 103 1.0 6.0 0.00 0.00 0.00 46 1017.2
20260831155555 95 51 1.0 8.0 0.00 0.00 0.00 48 1017.1
20260831155055 94 130 2.0 5.0 0.00 0.00 0.00 48 1017.1
20260831154643 93 51 1.0 5.0 0.00 0.00 0.00 49 1017.1
20260831154055 93 52 2.0 5.0 0.00 0.00 0.00 50 1017.0
20260831153555 94 99 0.0 5.0 0.00 0.00 0.00 53 1017.0
20260831153104 92 59 1.0 5.0 0.00 0.00 0.00 53 1017.0
20260831152557 91 0 2.0 5.0 0.00 0.00 0.00 55 1016.9
20260831152055 92 65 1.0 4.0 0.00 0.00 0.00 56 1017.0
20260831151614 92 0 1.0 4.0 0.00 0.00 0.00 54 1016.8
20260831151056 91 0 0.0 3.0 0.00 0.00 0.00 59 1017.1
20260831150555 89 177 1.0 4.0 0.00 0.00 0.00 59 1016.9
20260831150106 89 0 1.0 4.0 0.00 0.00 0.00 61 1017.0
20260831145554 88 61 1.0 4.0 0.00 0.00 0.00 62 1017.0
20260831145057 87 352 0.0 4.0 0.00 0.00 0.00 65 1017.0
20260831144602 87 76 1.0 4.0 0.00 0.00 0.00 63 1016.9
20260831144056 87 101 1.0 4.0 0.00 0.00 0.00 64 1017.1
20260831143555 87 82 0.0 4.0 0.00 0.00 0.00 64 1017.1
20260831143114 86 98 0.0 7.0 0.00 0.00 0.00 65 1017.1
20260831142556 86 273 1.0 7.0 0.00 0.00 0.00 66 1017.0
20260831142059 85 173 1.0 7.0 0.00 0.00 0.00 67 1017.1
20260831141609 84 61 1.0 6.0 0.00 0.00 0.00 69 1017.0
20260831141055 84 61 1.0 6.0 0.00 0.00 0.00 70 1017.1
20260831140555 83 55 1.0 5.0 0.00 0.00 0.00 71 1017.0
20260831140109 82 39 1.0 5.0 0.00 0.00 0.00 72 1017.0
20260831135555 81 72 1.0 5.0 0.00 0.00 0.00 73 1017.0
20260831135055 81 28 1.0 4.0 0.00 0.00 0.00 74 1016.8
20260831134604 80 55 0.0 3.0 0.00 0.00 0.00 75 1016.9
20260831134054 80 0 1.0 4.0 0.00 0.00 0.00 76 1016.7
20260831133556 79 46 1.0 5.0 0.00 0.00 0.00 76 1016.5
20260831133102 79 39 1.0 5.0 0.00 0.00 0.00 77 1016.5
20260831132558 78 71 1.0 5.0 0.00 0.00 0.00 78 1016.5
20260831132055 78 61 1.0 4.0 0.00 0.00 0.00 78 1016.3
20260831131610 77 212 1.0 4.0 0.00 0.00 0.00 79 1016.3
20260831131057 77 0 1.0 3.0 0.00 0.00 0.00 80 1016.3
20260831130558 76 45 1.0 3.0 0.00 0.00 0.00 80 1016.3
20260831130127 76 0 0.0 3.0 0.00 0.00 0.00 81 1016.2
20260831125555 76 58 0.0 2.0 0.00 0.00 0.00 81 1016.2
20260831125056 75 0 0.0 2.0 0.00 0.00 0.00 82 1016.1
20260831124605 75 0 0.0 1.0 0.00 0.00 0.00 82 1015.9
20260831124055 75 0 0.0 1.0 0.00 0.00 0.00 82 1015.8
20260831123554 74 0 0.0 1.0 0.00 0.00 0.00 82 1015.9
20260831123103 74 0 0.0 0.0 0.00 0.00 0.00 82 1015.8
20260831122554 74 0 0.0 0.0 0.00 0.00 0.00 82 1015.8
20260831122055 74 0 0.0 0.0 0.00 0.00 0.00 82 1015.7
20260831121615 74 0 0.0 0.0 0.00 0.00 0.00 82 1015.5
20260831121058 74 0 0.0 1.0 0.00 0.00 0.00 81 1015.6
20260831120555 74 0 0.0 1.0 0.00 0.00 0.00 81 1015.5
20260831115554 74 0 0.0 0.0 0.00 0.00 0.00 81 1015.4
20260831115054 74 0 0.0 1.0 0.00 0.00 0.00 81 1015.3
20260831114607 74 0 0.0 1.0 0.00 0.00 0.00 80 1015.3
20260831114056 75 0 0.0 0.0 0.00 0.00 0.00 80 1015.3
20260831113556 75 0 0.0 0.0 0.00 0.00 0.00 80 1015.2
20260831113103 75 0 0.0 0.0 0.00 0.00 0.00 80 1015.1
20260831112556 75 0 0.0 0.0 0.00 0.00 0.00 80 1015.2
20260831112055 75 0 0.0 0.0 0.00 0.00 0.00 79 1015.2
20260831111605 75 0 0.0 0.0 0.00 0.00 0.00 79 1015.0
20260831111056 75 0 0.0 0.0 0.00 0.00 0.00 79 1014.9
20260831110557 75 0 0.0 0.0 0.00 0.00 0.00 78 1014.9
20260831110107 75 0 0.0 0.0 0.00 0.00 0.00 78 1014.9
20260831105555 76 0 0.0 0.0 0.00 0.00 0.00 77 1014.9
20260831105055 76 0 0.0 0.0 0.00 0.00 0.00 77 1014.9
20260831104604 76 0 0.0 0.0 0.00 0.00 0.00 77 1014.7
20260831104055 76 0 0.0 0.0 0.00 0.00 0.00 76 1015.0
20260831103557 77 0 0.0 2.0 0.00 0.00 0.00 76 1014.8
20260831103103 77 0 0.0 2.0 0.00 0.00 0.00 76 1014.8
20260831102558 77 0 0.0 1.0 0.00 0.00 0.00 76 1014.8
20260831102055 77 0 0.0 1.0 0.00 0.00 0.00 75 1014.9
20260831101609 77 0 0.0 1.0 0.00 0.00 0.00 75 1015.0
20260831101055 77 0 0.0 0.0 0.00 0.00 0.00 75 1014.9
20260831100555 77 0 0.0 0.0 0.00 0.00 0.00 75 1014.9
20260831100108 77 0 0.0 0.0 0.00 0.00 0.00 75 1015.0
20260831095554 77 0 0.0 0.0 0.00 0.00 0.00 75 1014.8
20260831095055 76 0 0.0 0.0 0.00 0.00 0.00 75 1014.8
20260831094632 76 0 0.0 1.0 0.00 0.00 0.00 74 1014.8
20260831094056 76 0 0.0 1.0 0.00 0.00 0.00 74 1014.8
20260831093555 77 0 0.0 0.0 0.00 0.00 0.00 74 1014.8
20260831093109 77 0 0.0 0.0 0.00 0.00 0.00 73 1014.7
20260831092554 78 0 0.0 0.0 0.00 0.00 0.00 73 1014.7
20260831092054 78 0 0.0 0.0 0.00 0.00 0.00 72 1014.6
20260831091617 78 0 0.0 0.0 0.00 0.00 0.00 72 1014.5
20260831091054 79 0 0.0 0.0 0.00 0.00 0.00 71 1014.6
20260831090555 79 0 0.0 1.0 0.00 0.00 0.00 71 1014.4
20260831090105 79 0 0.0 1.0 0.00 0.00 0.00 71 1014.5
20260831085554 79 0 0.0 1.0 0.00 0.00 0.00 71 1014.6
20260831085056 79 0 0.0 0.0 0.00 0.00 0.00 71 1014.4
20260831084616 80 0 0.0 0.0 0.00 0.00 0.00 70 1014.5
20260831084054 80 0 0.0 0.0 0.00 0.00 0.00 69 1014.5
20260831083554 80 0 0.0 0.0 0.00 0.00 0.00 69 1014.4
20260831083109 81 0 0.0 1.0 0.00 0.00 0.00 68 1014.3
20260831082554 81 0 0.0 2.0 0.00 0.00 0.00 68 1014.3
20260831082057 81 200 0.0 2.0 0.00 0.00 0.00 68 1014.4
20260831081605 80 194 0.0 3.0 0.00 0.00 0.00 68 1014.3
20260831081053 80 219 0.0 3.0 0.00 0.00 0.00 67 1014.3
20260831080553 80 0 0.0 3.0 0.00 0.00 0.00 67 1014.6
20260831080103 81 182 0.0 3.0 0.00 0.00 0.00 66 1014.6
20260831075554 80 0 0.0 3.0 0.00 0.00 0.00 66 1014.6
20260831075054 81 0 0.0 2.0 0.00 0.00 0.00 66 1014.5
20260831074605 81 175 0.0 2.0 0.00 0.00 0.00 65 1014.5
20260831074055 81 0 0.0 3.0 0.00 0.00 0.00 65 1014.5
20260831073554 81 0 0.0 3.0 0.00 0.00 0.00 64 1014.5
20260831073105 80 0 0.0 2.0 0.00 0.00 0.00 64 1014.7
20260831072557 80 0 0.0 2.0 0.00 0.00 0.00 64 1014.6
20260831072057 80 0 0.0 2.0 0.00 0.00 0.00 64 1014.6
20260831071615 80 0 0.0 3.0 0.00 0.00 0.00 64 1014.5
20260831071057 80 17 0.0 3.0 0.00 0.00 0.00 63 1014.5
20260831070557 80 0 0.0 2.0 0.00 0.00 0.00 63 1014.6
20260831070104 80 0 0.0 2.0 0.00 0.00 0.00 62 1014.6
20260831065559 80 0 0.0 2.0 0.00 0.00 0.00 62 1014.6
20260831065057 81 0 0.0 2.0 0.00 0.00 0.00 62 1014.4
20260831064615 81 195 0.0 3.0 0.00 0.00 0.00 61 1014.5
20260831064055 81 0 0.0 3.0 0.00 0.00 0.00 61 1014.6
20260831063556 81 0 0.0 3.0 0.00 0.00 0.00 61 1014.7
20260831063117 81 0 0.0 3.0 0.00 0.00 0.00 61 1014.6
20260831062556 81 0 0.0 3.0 0.00 0.00 0.00 61 1014.6
20260831062056 81 0 0.0 3.0 0.00 0.00 0.00 60 1014.7
20260831061608 81 236 0.0 3.0 0.00 0.00 0.00 60 1014.6
20260831061059 80 0 0.0 2.0 0.00 0.00 0.00 60 1014.7
20260831060556 80 0 0.0 1.0 0.00 0.00 0.00 61 1014.6
20260831060113 80 0 0.0 0.0 0.00 0.00 0.00 61 1014.7
20260831055556 80 0 0.0 0.0 0.00 0.00 0.00 61 1014.6
20260831055058 80 0 0.0 0.0 0.00 0.00 0.00 61 1014.6
20260831054605 80 0 0.0 0.0 0.00 0.00 0.00 60 1014.5
20260831054059 80 0 0.0 1.0 0.00 0.00 0.00 59 1014.5
20260831053557 81 0 0.0 1.0 0.00 0.00 0.00 59 1014.5
20260831053105 81 0 0.0 1.0 0.00 0.00 0.00 59 1014.5
20260831052555 81 0 0.0 1.0 0.00 0.00 0.00 58 1014.4
20260831052056 81 0 0.0 1.0 0.00 0.00 0.00 58 1014.4
20260831051614 81 0 0.0 1.0 0.00 0.00 0.00 58 1014.5
20260831051056 81 0 0.0 1.0 0.00 0.00 0.00 58 1014.4
20260831050556 81 0 0.0 0.0 0.00 0.00 0.00 58 1014.5
20260831050111 81 0 0.0 0.0 0.00 0.00 0.00 58 1014.3
20260831045556 81 0 0.0 0.0 0.00 0.00 0.00 58 1014.3
20260831045056 81 0 0.0 0.0 0.00 0.00 0.00 58 1014.2
20260831044606 82 0 0.0 0.0 0.00 0.00 0.00 57 1014.2
20260831044055 82 0 0.0 0.0 0.00 0.00 0.00 57 1014.3
20260831043556 82 0 0.0 0.0 0.00 0.00 0.00 56 1014.2
20260831043103 82 0 0.0 0.0 0.00 0.00 0.00 56 1014.2
20260831042556 83 0 0.0 0.0 0.00 0.00 0.00 56 1014.3
20260831042056 83 0 0.0 0.0 0.00 0.00 0.00 55 1014.2
20260831041606 83 0 0.0 0.0 0.00 0.00 0.00 55 1014.0
20260831041059 83 0 0.0 0.0 0.00 0.00 0.00 55 1014.0
20260831040556 84 0 0.0 0.0 0.00 0.00 0.00 54 1014.2
20260831040110 84 0 0.0 0.0 0.00 0.00 0.00 54 1014.1
20260831035556 84 0 0.0 0.0 0.00 0.00 0.00 54 1014.0
20260831035056 84 0 0.0 0.0 0.00 0.00 0.00 54 1013.9
20260831034601 84 0 0.0 0.0 0.00 0.00 0.00 54 1013.9
20260831034056 84 0 0.0 0.0 0.00 0.00 0.00 53 1013.9
20260831033600 84 0 0.0 0.0 0.00 0.00 0.00 53 1013.9
20260831033103 85 0 0.0 0.0 0.00 0.00 0.00 52 1013.8
20260831032557 85 0 0.0 0.0 0.00 0.00 0.00 51 1013.8
20260831032127 86 0 0.0 1.0 0.00 0.00 0.00 50 1013.8
20260831031605 86 0 0.0 2.0 0.00 0.00 0.00 50 1013.6
20260831031056 87 0 0.0 2.0 0.00 0.00 0.00 49 1013.6
20260831030556 87 0 0.0 2.0 0.00 0.00 0.00 48 1013.6
20260831030105 87 197 0.0 2.0 0.00 0.00 0.00 48 1013.6
20260831025556 87 69 0.0 2.0 0.00 0.00 0.00 47 1013.6
20260831025100 88 252 0.0 2.0 0.00 0.00 0.00 47 1013.5
20260831024621 88 0 0.0 2.0 0.00 0.00 0.00 46 1013.5
20260831024057 88 0 0.0 2.0 0.00 0.00 0.00 45 1013.3
20260831023554 88 48 0.0 3.0 0.00 0.00 0.00 45 1013.2
20260831023110 89 0 0.0 3.0 0.00 0.00 0.00 44 1013.1
20260831022556 89 70 0.0 3.0 0.00 0.00 0.00 44 1013.1
20260831022056 89 265 1.0 3.0 0.00 0.00 0.00 43 1012.9
20260831021609 90 0 1.0 3.0 0.00 0.00 0.00 43 1012.9
20260831021056 90 48 1.0 3.0 0.00 0.00 0.00 43 1012.8
20260831020556 90 27 0.0 2.0 0.00 0.00 0.00 43 1012.8
20260831020115 90 74 1.0 3.0 0.00 0.00 0.00 43 1012.7
20260831015555 90 0 0.0 3.0 0.00 0.00 0.00 42 1012.6
20260831015054 90 148 0.0 3.0 0.00 0.00 0.00 42 1012.5
20260831014600 90 0 0.0 3.0 0.00 0.00 0.00 41 1012.3
20260831014054 91 0 0.0 3.0 0.00 0.00 0.00 41 1012.3
20260831013557 91 66 1.0 3.0 0.00 0.00 0.00 40 1012.2
20260831013106 91 42 0.0 3.0 0.00 0.00 0.00 39 1012.2
20260831012556 92 63 1.0 3.0 0.00 0.00 0.00 39 1012.2
20260831012054 92 0 0.0 4.0 0.00 0.00 0.00 38 1012.3
20260831011607 92 127 0.0 4.0 0.00 0.00 0.00 38 1012.3
20260831011056 93 45 0.0 3.0 0.00 0.00 0.00 37 1012.3
20260831010554 93 0 0.0 3.0 0.00 0.00 0.00 37 1012.4
20260831005558 94 0 1.0 4.0 0.00 0.00 0.00 35 1012.3
20260831005055 94 59 1.0 4.0 0.00 0.00 0.00 35 1012.3
20260831004601 94 0 1.0 4.0 0.00 0.00 0.00 35 1012.1
20260831004056 94 194 1.0 6.0 0.00 0.00 0.00 35 1012.2
20260831003556 95 61 1.0 6.0 0.00 0.00 0.00 34 1012.2
20260831003105 95 5 2.0 6.0 0.00 0.00 0.00 34 1012.1
20260831002555 95 95 1.0 6.0 0.00 0.00 0.00 34 1012.2
20260831002055 96 182 2.0 6.0 0.00 0.00 0.00 34 1012.1
20260831001602 96 183 0.0 4.0 0.00 0.00 0.00 34 1012.2
20260831001055 96 0 1.0 5.0 0.00 0.00 0.00 33 1012.1
20260831000554 96 190 2.0 5.0 0.00 0.00 0.00 33 1012.1
20260831000105 96 69 1.0 5.0 0.00 0.00 0.00 33 1012.1
20260830235554 97 17 1.0 6.0 0.00 0.00 0.00 33 1012.0
20260830235054 97 90 1.0 6.0 0.00 0.00 0.00 32 1012.0
20260830234612 97 88 2.0 6.0 0.00 0.00 0.00 32 1011.9
20260830234058 97 128 1.0 5.0 0.00 0.00 0.00 32 1011.9
20260830233555 98 153 2.0 5.0 0.00 0.00 0.00 32 1012.0
20260830233105 98 191 2.0 10.0 0.00 0.00 0.00 32 1012.2
20260830232554 98 89 2.0 10.0 0.00 0.00 0.00 33 1012.1
20260830232056 98 59 2.0 8.0 0.00 0.00 0.00 32 1012.3
20260830231601 98 125 1.0 5.0 0.00 0.00 0.00 33 1012.3
20260830231054 98 167 2.0 6.0 0.00 0.00 0.00 33 1012.2
20260830230555 98 202 1.0 6.0 0.00 0.00 0.00 32 1012.2
20260830230105 99 165 1.0 8.0 0.00 0.00 0.00 32 1012.2
20260830225554 99 40 1.0 8.0 0.00 0.00 0.00 32 1012.3
20260830225056 99 63 2.0 8.0 0.00 0.00 0.00 31 1012.5
20260830224609 99 13 2.0 6.0 0.00 0.00 0.00 31 1012.5
20260830224055 99 116 2.0 7.0 0.00 0.00 0.00 31 1012.4
20260830223555 99 108 1.0 7.0 0.00 0.00 0.00 30 1012.3
20260830223103 99 106 2.0 8.0 0.00 0.00 0.00 31 1012.4
20260830222554 99 98 1.0 8.0 0.00 0.00 0.00 31 1012.4
20260830222054 100 51 2.0 7.0 0.00 0.00 0.00 30 1012.5
20260830221605 100 192 1.0 5.0 0.00 0.00 0.00 30 1012.2
20260830221054 100 119 1.0 9.0 0.00 0.00 0.00 29 1012.3
20260830220554 100 0 2.0 9.0 0.00 0.00 0.00 29 1012.4
20260830220114 100 74 2.0 6.0 0.00 0.00 0.00 29 1012.3
20260830215558 100 302 1.0 7.0 0.00 0.00 0.00 29 1012.3
20260830215058 100 61 2.0 7.0 0.00 0.00 0.00 29 1012.2
20260830214605 100 87 1.0 14.0 0.00 0.00 0.00 29 1012.3
20260830214055 101 59 3.0 14.0 0.00 0.00 0.00 29 1012.3
20260830213555 101 108 2.0 9.0 0.00 0.00 0.00 29 1012.4
20260830213127 101 339 2.0 9.0 0.00 0.00 0.00 29 1012.6
20260830212558 102 49 2.0 7.0 0.00 0.00 0.00 29 1012.7
20260830212055 101 144 0.0 6.0 0.00 0.00 0.00 29 1012.9
20260830211604 102 91 1.0 7.0 0.00 0.00 0.00 28 1012.9
20260830211054 102 36 2.0 7.0 0.00 0.00 0.00 29 1012.9
20260830210555 102 196 2.0 5.0 0.00 0.00 0.00 28 1012.8
20260830210111 103 191 1.0 5.0 0.00 0.00 0.00 28 1012.7
20260830205555 102 63 2.0 4.0 0.00 0.00 0.00 28 1012.9
20260830205056 102 246 1.0 4.0 0.00 0.00 0.00 28 1013.1
20260830204612 102 221 1.0 6.0 0.00 0.00 0.00 27 1013.1
20260830204057 102 0 2.0 6.0 0.00 0.00 0.00 27 1013.2
20260830203556 102 119 2.0 6.0 0.00 0.00 0.00 28 1013.2
20260830203110 102 186 2.0 6.0 0.00 0.00 0.00 28 1013.3
20260830202556 103 229 1.0 7.0 0.00 0.00 0.00 28 1013.4
20260830202103 103 153 1.0 8.0 0.00 0.00 0.00 28 1013.3
20260830201605 104 258 2.0 8.0 0.00 0.00 0.00 27 1013.3
20260830201055 103 48 2.0 8.0 0.00 0.00 0.00 29 1013.3
20260830200555 102 157 1.0 8.0 0.00 0.00 0.00 29 1013.5
20260830200104 102 307 1.0 5.0 0.00 0.00 0.00 29 1013.6
20260830195555 103 261 0.0 5.0 0.00 0.00 0.00 29 1013.5
20260830195056 102 60 2.0 5.0 0.00 0.00 0.00 28 1013.8
20260830194613 103 69 2.0 7.0 0.00 0.00 0.00 27 1013.9
20260830194055 102 105 1.0 7.0 0.00 0.00 0.00 28 1013.9
20260830193554 103 207 2.0 7.0 0.00 0.00 0.00 28 1014.0
20260830193102 103 168 1.0 4.0 0.00 0.00 0.00 28 1014.2
20260830192554 103 209 1.0 5.0 0.00 0.00 0.00 30 1014.1
20260830192056 102 196 2.0 7.0 0.00 0.00 0.00 28 1014.0
20260830191601 103 58 3.0 7.0 0.00 0.00 0.00 30 1014.1
20260830191057 102 29 2.0 6.0 0.00 0.00 0.00 32 1014.2
20260830190558 102 273 1.0 5.0 0.00 0.00 0.00 31 1014.2
20260830190111 102 107 1.0 6.0 0.00 0.00 0.00 32 1014.2
20260830185558 102 77 1.0 6.0 0.00 0.00 0.00 33 1014.5
20260830185054 102 24 1.0 7.0 0.00 0.00 0.00 31 1014.5
20260830184614 101 86 2.0 7.0 0.00 0.00 0.00 32 1014.6
20260830184058 102 25 2.0 5.0 0.00 0.00 0.00 31 1014.7
20260830183552 103 0 1.0 6.0 0.00 0.00 0.00 32 1014.7
20260830183104 102 80 1.0 8.0 0.00 0.00 0.00 32 1014.9
20260830182556 101 44 2.0 8.0 0.00 0.00 0.00 32 1015.0
20260830182055 102 110 1.0 6.0 0.00 0.00 0.00 33 1015.0
20260830181605 101 360 2.0 6.0 0.00 0.00 0.00 35 1015.0
20260830181056 100 321 1.0 7.0 0.00 0.00 0.00 37 1015.2
20260830180555 100 40 3.0 7.0 0.00 0.00 0.00 34 1015.2
20260830180106 100 146 2.0 6.0 0.00 0.00 0.00 34 1015.4
20260830175554 101 132 2.0 6.0 0.00 0.00 0.00 34 1015.5
20260830175053 100 97 1.0 6.0 0.00 0.00 0.00 36 1015.3
20260830174604 100 271 2.0 6.0 0.00 0.00 0.00 35 1015.7
20260830174059 101 245 1.0 7.0 0.00 0.00 0.00 36 1015.8
20260830173557 101 173 2.0 7.0 0.00 0.00 0.00 34 1015.9
20260830173100 100 60 2.0 7.0 0.00 0.00 0.00 36 1016.0